Regional Weather Roundup
Issued by NWS Upton, NY

Current Version | Previous Version | Text Only | Print | Product List | Glossary On
Versions: 1 2 3 4 5 6 7 8 9 10 11 12 13 14 15 16 17 18 19 20 21 22 23 24 25 26 27 28 29 30 31 32 33 34 35 36 37 38 39 40 41 42 43 44 45 46 47 48 49 50
000
ASUS41 KOKX 021918
RWROKX

REGIONAL WEATHER ROUNDUP
NATIONAL WEATHER SERVICE NEW YORK NY
300 PM EDT TUE JUN 02 2015

NOTE: "FAIR" INDICATES FEW OR NO CLOUDS BELOW 12,000 FEET WITH NO
SIGNIFICANT WEATHER AND/OR OBSTRUCTIONS TO VISIBILITY.

NYZ071-072-176-178-NJZ106-104-022000-
NEW YORK CITY METRO AREA


CITY           SKY/WX    TMP DP  RH WIND       PRES   REMARKS
CENTRAL PARK   RAIN      54  50  86 VRB6      30.16F FOG
LAGUARDIA APRT RAIN      54  48  82 NE12      30.14S FOG
KENNEDY INTL   LGT RAIN  56  50  80 NE13      30.14F
NEWARK/LIBERTY LGT RAIN  57  53  86 NE9       30.14S
BRNX BOT. GARD   N/A     54  50  87 CALM      30.15F
TETERBORO      LGT RAIN  55  50  82 NE6       30.12F
$$

NYZ177-179-078>081-022000-
LONG ISLAND NEW YORK

CITY           SKY/WX    TMP DP  RH WIND       PRES   REMARKS
FARMINGDALE    CLOUDY    54  50  86 NE12      30.14S
ISLIP          LGT RAIN  53  49  86 N12       30.11F
SHIRLEY        LGT RAIN  53  50  89 VRB7      30.13F
WESTHAMPTON    LGT RAIN  53  51  93 N10       30.14F
MONTAUK POINT    N/A     53  49  86 N9        30.15R
$$

NYZ052-065-067-022000-
HUDSON VALLEY

CITY           SKY/WX    TMP DP  RH WIND       PRES   REMARKS
WHITE PLAINS   LGT RAIN  53  50  89 N5        30.12F FOG
NEWBURGH       DRIZZLE   54  52  94 NE6       30.16F
MONTGOMERY     LGT RAIN  55  51  86 NE7       30.15S
POUGHKEEPSIE   CLOUDY    56  50  80 NW3       30.14F
ALBANY         CLOUDY    60  48  64 CALM      30.16F
$$

NJZ001-105-106-008-010-013-015-019>022-104-022000-
NEW JERSEY

CITY           SKY/WX    TMP DP  RH WIND       PRES   REMARKS
NEWARK/LIBERTY LGT RAIN  57  53  86 NE9       30.14S
TETERBORO      LGT RAIN  55  50  82 NE6       30.12F
CALDWELL       LGT RAIN  54  51  90 NE6       30.14F
MORRISTOWN     LGT RAIN  61  57  88 NE8       30.14F FOG
SOMERVILLE     RAIN      55  52  89 N3        30.11F FOG
SUSSEX         RAIN      54  50  86 NE6       30.15F FOG
ANDOVER          N/A     53  51  93 NE6       30.14F
TRENTON        LGT RAIN  55  53  93 NE9       30.12F
MILLVILLE      CLOUDY    58  54  86 NE10      30.09S
ATLANTIC CITY  LGT RAIN  56  54  93 NE9       30.10S FOG
WRIGHTSTOWN    LGT RAIN  55  54  94 NE9       30.09F
TOMS RIVER     CLOUDY   N/A N/A N/A NE8       30.12S
BELMAR         CLOUDY    54  46  76 NE8       30.13S
$$

PAZ047>061-062-071-022000-
EASTERN PENNSYLVANIA

CITY           SKY/WX    TMP DP  RH WIND       PRES   REMARKS
PHILADELPHIA   LGT RAIN  57  53  86 NE8       30.12F FOG
ALLENTOWN      LGT RAIN  55  54  94 N3        30.13F
SCRANTON       LGT RAIN  57  53  86 CALM      30.13F
$$

CTZ002-004>006-009-010-012-RIZ004-006-007-MAZ004-011-015-022000-
SOUTHERN NEW ENGLAND
 IN CT

CITY           SKY/WX    TMP DP  RH WIND       PRES   REMARKS
BRADLEY INTL   CLOUDY    54  47  77 N6        30.16F
HARTFORD       LGT RAIN  53  47  79 VRB7      30.16F
DANBURY        LGT RAIN  53  48  83 NE7       30.15F
WTRBRY/OXFORD  LGT RAIN  52  45  76 NE9       30.16F FOG
BRIDGEPORT     RAIN      53  50  89 NE9       30.14F FOG
MERIDEN        LGT RAIN  53  48  83 N6        30.15F
NEW HAVEN      LGT RAIN  53  50  89 N8        30.14F
CHESTER        LGT RAIN  52  48  87 NE6       30.15F
GROTON         CLOUDY    52  48  86 N13       30.14S
WILLIMANTIC    LGT RAIN  52  47  83 N12       30.16S

 IN RI

CITY           SKY/WX    TMP DP  RH WIND       PRES   REMARKS
PROVIDENCE     LGT RAIN  51  47  86 N13       30.16S
BLOCK ISLAND   CLOUDY    52  46  82 N12       30.14S
WESTERLY       LGT RAIN  51  48  89 N9        30.15R

 IN MA

CITY           SKY/WX    TMP DP  RH WIND       PRES   REMARKS
BOSTON         CLOUDY    49  46  90 N14       30.18F
WORCESTER      CLOUDY    47  44  90 NE6       30.16F VSB 1/2
WESTFIELD      CLOUDY    53  46  77 N7        30.17F
PROVINCETOWN   CLOUDY    52  45  76 N15G22    30.14F
NANTUCKET      LGT RAIN  53  50  89 N18       30.09S
$$

ANZ330-335-338-340-345-350-353-355-022000-
COASTAL MARINE OBSERVATIONS


STATION/POSITION TIME  SKY/WX   TEMP    WIND        PRES    VSBY  WAVE
                                AIR SEA DIR/SP/G                  HT/PER
                 (UTC)          (F)     (DEG/KT/KT) (MB)    (MI)  (FT/S)
NY HARB ENTRANCE 1750            53 56   20/ 14/ 16 1020.0          4/ 6
4S FIRE IS       1803               56                N/A           3/ 7
20S FIRE ISLAND  1850            53 57   30/ 16/ 17 1019.6          4/ 6
GREAT SOUTH BAY  1830            54 65   40/ 12/ 16   N/A
23SW MTP         1850            51 56   30/ 19/ 21 1019.6          4/ 5
HUDSON CANYON    NOT AVBL
KINGS POINT      1800            53 56   30/  5/ 11 1020.2
CENTRAL LI SOUND 1830            53 56   10/ 12/ 14   N/A
EASTERN LI SOUND 1800            52      20/ 12/ 16   N/A
ROBBINS REEF     1800            54     360/ 11/ 14 1019.3
$$


>>>>>>>>>>>>>>>>>>>>>>>>>>>> KEY <<<<<<<<<<<<<<<<<<<<<<<<<<<
>                                                          <
>     SKY/WX - SKY CONDITION/PRESENT WEATHER               <
>     TMP    - TEMPERATURE IN FAHRENHEIT                   <
>     DP     - DEWPOINT IN FAHRENHEIT                      <
>     RH     - RELATIVE HUMIDITY IN PERCENT                <
>     WIND   - DIRECTION AND SPEED IN MPH                  <
>     PRES   - MEAN SEA LEVEL PRESSURE IN INCHES OF HG     <
>     WCI    - WIND CHILL INDEX                            <
>     VSB    - VISIBILITY IN MILES                         <
>     HX     - HEAT INDEX                                  <
>     TC     - TEMPERATURE IN CELSIUS                      <
>     VRB    - VARIABLE WIND DIRECTION                     <
>                                                          <
>>>>>>>>>>>>>>>>>>>>>>>>>>>> KEY <<<<<<<<<<<<<<<<<<<<<<<<<<<





USA.gov is the U.S. government's official web portal to all federal, state and local government web resources and services.